This demonstration page uses our WeatherBlox Daily Observations layout. Learn more.

Left ArrowRight Arrow

39.01783, -85.05884

Hourly Observations for September 24, 2020

Temp ( °F °C ) Dew Point ( °F °C ) Humidity (%) Winds ( mph kmh ) Pressure ( in mb ) Visibility ( mi km ) Precip ( " mm )
12:52 am 00:52 Cloudy 61 16.1 55 12.8 81 81 Calm 30.03 1017 10 16 0.00 0.00
1:52 am 01:52 Cloudy 61 16.1 55 12.8 81 81 WSW 3 6 30.01 1016 10 16 0.00 0.00
2:52 am 02:52 Cloudy 59 15 56 13.3 90 90 Calm 30.01 1016 10 16 0.00 0.00
3:52 am 03:52 Cloudy 61 16.1 55 12.8 81 81 N 3 6 30.01 1016 10 16 0.00 0.00
4:52 am 04:52 Cloudy 59 15 55 12.8 87 87 Calm 30.01 1016 10 16 0.00 0.00
5:52 am 05:52 Cloudy 59 15 55 12.8 87 87 W 5 7 30.01 1016 10 16 0.00 0.00
6:52 am 06:52 Cloudy 60 15.6 54 12.2 80 80 Calm 30.01 1016 10 16 0.00 0.00
7:52 am 07:52 Cloudy 61 16.1 54 12.2 78 78 Calm 30.02 1017 10 16 0.00 0.00
8:52 am 08:52 Mostly Cloudy 59 15 55 12.8 87 87 Calm 30.03 1017 9 14 0.00 0.00
9:52 am 09:52 Mostly Cloudy 64 17.8 54 12.2 70 70 NNE 3 6 30.04 1017 10 16 0.00 0.00
10:52 am 10:52 Partly Cloudy 67 19.4 53 11.7 61 61 Calm 30.05 1018 10 16 0.00 0.00
11:52 am 11:52 Mostly Cloudy 68 20 51 10.6 55 55 Calm 30.04 1017 10 16 0.00 0.00
12:52 pm 12:52 Mostly Cloudy 71 21.7 53 11.7 53 53 VRB 3 6 30.02 1017 10 16 0.00 0.00
1:52 pm 13:52 Partly Cloudy 75 23.9 54 12.2 48 48 SE 5 7 30.00 1016 10 16 0.00 0.00
2:52 pm 14:52 Partly Cloudy 74 23.3 53 11.7 48 48 S 6 9 29.98 1015 10 16 0.00 0.00
3:52 pm 15:52 Partly Cloudy 76 24.4 52 11.1 43 43 SSE 7 11 29.97 1015 10 16 0.00 0.00
4:52 pm 16:52 Partly Cloudy 75 23.9 53 11.7 46 46 SSW 6 9 29.96 1015 10 16 0.00 0.00
5:52 pm 17:52 Mostly Sunny 75 23.9 54 12.2 48 48 Calm 29.95 1014 10 16 0.00 0.00
6:52 pm 18:52 Mostly Sunny 73 22.8 53 11.7 50 50 ESE 6 9 29.95 1014 10 16 0.00 0.00
7:52 pm 19:52 Mostly Clear 70 21.1 53 11.7 55 55 E 5 7 29.96 1015 10 16 0.00 0.00
8:52 pm 20:52 Partly Cloudy 67 19.4 55 12.8 66 66 Calm 29.96 1015 10 16 0.00 0.00
9:52 pm 21:52 Mostly Clear 67 19.4 54 12.2 63 63 SSE 3 6 29.97 1015 10 16 0.00 0.00
10:52 pm 22:52 Mostly Clear 62 16.7 55 12.8 78 78 S 6 9 29.98 1015 10 16 0.00 0.00
11:52 pm 23:52 Clear 63 17.2 55 12.8 76 76 Calm 29.98 1015 10 16 0.00 0.00

Powered by AerisWeather